QPF
0.00 0.00 0.00 0.00 0.00 0.00 0.00 0.00 0.00 0.00 0.00 0.00 0.00 0.00 0.00 0.00 0.00 0.00 0.00 0.00 0.00 0.00 0.00 0.00 0.00 0.00 0.00 0.00 0.00 0.00 0.00 0.00 0.00 0.00 0.00 0.00 0.00 0.00 0.00 0.01 0.04 0.05 0.00 0.00 0.00
0.00 0.00 0.00 0.00 0.00 0.00 0.00 0.00 0.00 0.00 0.00 0.00 0.00 0.00 0.00 0.00 0.00 0.00 0.00 0.00 0.00 0.00 0.00 0.00 0.00 0.00 0.00 0.00 0.00 0.00 0.00 0.00 0.00 0.00 0.00 0.00 0.00 0.01 0.00 0.00 0.04 0.11 0.03 0.00 0.00
0.00 0.00 0.00 0.00 0.00 0.00 0.00 0.00 0.00 0.00 0.00 0.00 0.00 0.00 0.00 0.00 0.00 0.00 0.00 0.00 0.00 0.00 0.00 0.00 0.00 0.00 0.00 0.00 0.00 0.00 0.00 0.00 0.00 0.00 0.00 0.00 0.00 0.01 0.01 0.00 0.00 0.03 0.03 0.00 0.00
0.00 0.00 0.00 0.00 0.00 0.00 0.00 0.00 0.00 0.00 0.00 0.00 0.00 0.00 0.00 0.00 0.00 0.00 0.00 0.00 0.00 0.00 0.00 0.00 0.00 0.00 0.00 0.00 0.00 0.00 0.00 0.00 0.00 0.00 0.00 0.00 0.00 0.00 0.01 0.00 0.00 0.01 0.03 0.01 0.00
0.00 0.00 0.00 0.00 0.00 0.00 0.00 0.00 0.00 0.00 0.00 0.00 0.00 0.00 0.00 0.00 0.00 0.00 0.00 0.00 0.00 0.00 0.00 0.00 0.00 0.00 0.00 0.00 0.00 0.00 0.00 0.00 0.00 0.00 0.00 0.00 0.00 0.00 0.01 0.00 0.00 0.02 0.03 0.02 0.02
0.00 0.00 0.00 0.00 0.00 0.00 0.00 0.00 0.00 0.00 0.00 0.00 0.00 0.00 0.00 0.00 0.00 0.00 0.00 0.00 0.00 0.00 0.00 0.00 0.00 0.00 0.00 0.00 0.00 0.00 0.00 0.00 0.00 0.00 0.00 0.00 0.00 0.00 0.01 0.00 0.01 0.03 0.04 0.02 0.05
0.00 0.00 0.00 0.00 0.00 0.00 0.00 0.00 0.00 0.00 0.00 0.00 0.00 0.00 0.00 0.00 0.00 0.00 0.00 0.00 0.00 0.00 0.00 0.00 0.00 0.00 0.00 0.00 0.00 0.00 0.00 0.00 0.00 0.00 0.00 0.00 0.00 0.01 0.00 0.00 0.00 0.01 0.10 0.08 0.15
0.00 0.00 0.00 0.00 0.00 0.00 0.00 0.00 0.00 0.00 0.00 0.00 0.00 0.00 0.00 0.00 0.00 0.00 0.00 0.00 0.00 0.00 0.00 0.00 0.00 0.00 0.00 0.00 0.00 0.00 0.00 0.00 0.00 0.00 0.00 0.00 0.00 0.00 0.01 0.02 0.02 0.00 0.02 0.03 0.07
0.00 0.00 0.00 0.00 0.00 0.00 0.00 0.00 0.00 0.00 0.00 0.00 0.00 0.00 0.00 0.00 0.00 0.00 0.00 0.00 0.00 0.00 0.00 0.00 0.00 0.00 0.00 0.00 0.00 0.00 0.00 0.00 0.00 0.00 0.00 0.00 0.00 0.00 0.00 0.01 0.04 0.00 0.00 0.02 0.12
0.00 0.00 0.00 0.00 0.00 0.00 0.00 0.00 0.00 0.00 0.00 0.00 0.00 0.00 0.00 0.00 0.00 0.00 0.00 0.00 0.00 0.00 0.00 0.00 0.00 0.00 0.00 0.00 0.00 0.00 0.00 0.00 0.00 0.00 0.00 0.00 0.00 0.00 0.00 0.00 0.00 0.00 0.00 0.03 0.09
0.00 0.00 0.00 0.00 0.00 0.00 0.00 0.00 0.00 0.00 0.00 0.00 0.00 0.00 0.00 0.00 0.00 0.00 0.00 0.00 0.00 0.00 0.00 0.00 0.00 0.00 0.00 0.00 0.00 0.00 0.00 0.00 0.00 0.00 0.00 0.00 0.00 0.00 0.00 0.00 0.00 0.00 0.01 0.01 0.05
0.00 0.00 0.00 0.00 0.00 0.00 0.00 0.00 0.00 0.00 0.00 0.00 0.00 0.00 0.00 0.00 0.00 0.00 0.00 0.00 0.00 0.00 0.00 0.00 0.00 0.00 0.00 0.00 0.00 0.00 0.00 0.00 0.00 0.00 0.00 0.00 0.00 0.00 0.00 0.01 0.00 0.00 0.00 0.00 0.01
0.00 0.00 0.00 0.00 0.00 0.00 0.00 0.00 0.00 0.00 0.00 0.00 0.00 0.00 0.00 0.00 0.00 0.00 0.00 0.00 0.00 0.00 0.00 0.00 0.00 0.00 0.00 0.00 0.00 0.00 0.00 0.00 0.00 0.00 0.00 0.00 0.00 0.00 0.00 0.00 0.00 0.00 0.00 0.00 0.00
0.00 0.00 0.00 0.00 0.00 0.00 0.00 0.00 0.00 0.00 0.00 0.00 0.00 0.00 0.00 0.00 0.00 0.00 0.00 0.00 0.00 0.00 0.00 0.00 0.00 0.00 0.00 0.00 0.00 0.00 0.00 0.00 0.00 0.00 0.00 0.00 0.00 0.00 0.00 0.01 0.00 0.00 0.00 0.00 0.00
0.00 0.00 0.00 0.00 0.00 0.00 0.00 0.00 0.00 0.00 0.00 0.00 0.00 0.00 0.00 0.00 0.00 0.00 0.00 0.00 0.00 0.00 0.00 0.00 0.00 0.01 0.00 0.00 0.00 0.00 0.00 0.00 0.00 0.00 0.00 0.00 0.00 0.00 0.00 0.01 0.00 0.00 0.00 0.00 0.00
0.00 0.00 0.00 0.00 0.00 0.00 0.00 0.00 0.00 0.00 0.00 0.00 0.00 0.00 0.00 0.00 0.00 0.00 0.00 0.00 0.00 0.00 0.00 0.00 0.00 0.00 0.00 0.00 0.00 0.00 0.00 0.00 0.00 0.00 0.00 0.00 0.00 0.00 0.00 0.01 0.02 0.00 0.00 0.00 0.00
0.00 0.00 0.00 0.00 0.00 0.00 0.00 0.00 0.00 0.00 0.00 0.00 0.00 0.00 0.00 0.00 0.00 0.00 0.00 0.00 0.00 0.00 0.00 0.00 0.00 0.00 0.00 0.00 0.00 0.00 0.00 0.00 0.00 0.00 0.00 0.00 0.00 0.00 0.00 0.02 0.02 0.00 0.00 0.00 0.00
0.00 0.00 0.00 0.00 0.00 0.00 0.00 0.00 0.00 0.00 0.00 0.00 0.00 0.00 0.00 0.00 0.00 0.00 0.00 0.00 0.00 0.00 0.00 0.00 0.00 0.00 0.00 0.00 0.00 0.00 0.00 0.00 0.00 0.00 0.00 0.00 0.01 0.03 0.01 0.02 0.02 0.01 0.00 0.00 0.00
0.00 0.00 0.00 0.00 0.00 0.00 0.00 0.00 0.00 0.00 0.00 0.00 0.00 0.00 0.00 0.00 0.00 0.00 0.00 0.00 0.00 0.00 0.00 0.00 0.00 0.00 0.00 0.00 0.00 0.00 0.00 0.00 0.00 0.00 0.00 0.00 0.00 0.00 0.01 0.03 0.04 0.00 0.00 0.00 0.00
0.00 0.00 0.00 0.00 0.00 0.00 0.00 0.00 0.00 0.00 0.00 0.00 0.00 0.00 0.00 0.00 0.00 0.00 0.00 0.00 0.00 0.00 0.00 0.00 0.00 0.00 0.00 0.00 0.00 0.00 0.00 0.00 0.00 0.00 0.00 0.00 0.00 0.00 0.02 0.04 0.02 0.00 0.00 0.00 0.00
0.00 0.00 0.00 0.00 0.00 0.00 0.00 0.00 0.00 0.00 0.00 0.00 0.00 0.00 0.00 0.00 0.00 0.00 0.00 0.00 0.00 0.00 0.00 0.00 0.00 0.00 0.00 0.00 0.00 0.00 0.00 0.00 0.00 0.00 0.00 0.01 0.00 0.00 0.00 0.00 0.01 0.00 0.00 0.00 0.00
0.00 0.00 0.00 0.00 0.00 0.00 0.00 0.00 0.00 0.00 0.00 0.00 0.00 0.00 0.00 0.00 0.00 0.00 0.00 0.00 0.00 0.00 0.00 0.00 0.00 0.00 0.00 0.00 0.00 0.00 0.00 0.00 0.00 0.00 0.00 0.00 0.00 0.00 0.00 0.01 0.01 0.00 0.00 0.00 0.00
0.00 0.00 0.00 0.00 0.00 0.00 0.00 0.00 0.00 0.00 0.00 0.00 0.00 0.00 0.00 0.00 0.00 0.00 0.00 0.00 0.00 0.00 0.00 0.00 0.00 0.00 0.00 0.00 0.00 0.00 0.00 0.00 0.00 0.00 0.00 0.00 0.00 0.00 0.00 0.01 0.02 0.02 0.04 0.00 0.00
0.00 0.00 0.00 0.00 0.00 0.00 0.00 0.00 0.00 0.00 0.00 0.00 0.00 0.00 0.00 0.00 0.00 0.00 0.00 0.00 0.00 0.00 0.00 0.00 0.00 0.00 0.00 0.00 0.00 0.00 0.00 0.00 0.00 0.00 0.00 0.00 0.00 0.00 0.00 0.00 0.04 0.04 0.02 0.00 0.00
0.00 0.00 0.00 0.00 0.00 0.00 0.00 0.00 0.00 0.00 0.00 0.00 0.00 0.00 0.00 0.00 0.00 0.00 0.00 0.00 0.00 0.00 0.00 0.00 0.00 0.00 0.00 0.00 0.00 0.00 0.00 0.00 0.00 0.00 0.00 0.00 0.00 0.00 0.00 0.00 0.03 0.09 0.14 0.09 0.05
0.01 0.01 0.00 0.00 0.00 0.00 0.00 0.00 0.00 0.00 0.00 0.00 0.00 0.00 0.00 0.00 0.00 0.00 0.00 0.00 0.00 0.00 0.00 0.00 0.00 0.00 0.00 0.00 0.00 0.00 0.00 0.00 0.00 0.00 0.00 0.00 0.00 0.00 0.00 0.00 0.01 0.08 0.15 0.19 0.19
0.00 0.00 0.00 0.00 0.01 0.02 0.00 0.00 0.00 0.00 0.00 0.00 0.00 0.00 0.02 0.04 0.02 0.00 0.00 0.00 0.00 0.00 0.00 0.00 0.00 0.00 0.00 0.00 0.00 0.00 0.00 0.00 0.00 0.00 0.00 0.00 0.00 0.00 0.00 0.00 0.00 0.08 0.17 0.14 0.17
MSLP
1016.25 1016.01 1015.80 1015.56 1015.26 1014.92 1014.58 1014.36 1014.12 1013.87 1013.69 1013.46 1013.23 1012.90 1012.54 1012.08 1011.08 1010.26 1009.14 1006.90 1006.45 1005.96 1006.01 1005.28 1004.56 1003.70 1003.49 1003.81 1003.82 1005.36 1007.00 1006.68 1006.08 1005.46 1005.06 1004.67 1005.19 1006.18 1006.35 1006.13 1007.06 1007.34 1006.74 1006.96 1007.57
1016.21 1015.95 1015.72 1015.51 1015.20 1014.86 1014.49 1014.21 1013.99 1013.73 1013.51 1013.32 1013.16 1012.86 1012.49 1012.01 1011.08 1008.85 1006.52 1006.04 1006.00 1005.86 1005.97 1005.50 1004.47 1003.68 1002.88 1002.64 1003.14 1004.36 1005.32 1005.14 1004.11 1004.31 1003.88 1003.99 1004.66 1006.67 1006.84 1006.44 1007.12 1007.51 1007.20 1007.38 1007.65
1016.22 1015.90 1015.68 1015.39 1015.10 1014.72 1014.37 1014.10 1013.88 1013.67 1013.46 1013.25 1013.05 1012.76 1012.44 1012.09 1010.64 1006.34 1004.27 1005.13 1005.60 1005.74 1005.87 1005.33 1004.74 1004.14 1003.16 1002.33 1003.08 1003.60 1003.91 1003.18 1003.50 1003.02 1002.84 1003.38 1004.62 1005.89 1006.44 1007.12 1006.32 1006.58 1007.25 1007.46 1008.10
1016.25 1015.96 1015.71 1015.39 1015.02 1014.66 1014.30 1013.97 1013.78 1013.58 1013.39 1013.18 1012.96 1012.65 1012.26 1011.86 1009.03 1004.98 1004.32 1004.66 1005.17 1005.41 1005.63 1005.16 1004.59 1004.16 1003.34 1002.57 1001.60 1002.48 1002.69 1002.42 1002.47 1002.58 1002.51 1002.94 1004.48 1005.11 1005.62 1005.97 1006.07 1006.52 1007.27 1007.64 1008.40
1016.25 1015.96 1015.65 1015.34 1014.99 1014.61 1014.26 1014.02 1013.70 1013.51 1013.35 1013.17 1012.95 1012.60 1011.86 1010.90 1007.37 1004.58 1004.60 1004.88 1005.42 1005.58 1005.48 1005.17 1004.77 1004.00 1002.80 1001.61 1001.41 1001.64 1001.97 1001.84 1001.86 1001.99 1002.07 1002.50 1003.76 1004.68 1005.80 1005.26 1005.91 1006.64 1006.99 1007.60 1008.34
1016.19 1015.86 1015.58 1015.26 1014.88 1014.50 1014.14 1013.92 1013.68 1013.42 1013.28 1013.14 1012.92 1012.69 1012.08 1009.40 1004.22 1004.21 1004.58 1005.10 1005.00 1005.24 1004.99 1004.80 1004.08 1003.11 1002.30 1001.71 1001.56 1001.67 1001.72 1001.62 1001.67 1001.64 1001.73 1002.40 1003.82 1004.08 1005.15 1005.29 1005.62 1006.37 1007.82 1008.60 1009.30
1016.14 1015.77 1015.48 1015.14 1014.76 1014.34 1014.01 1013.80 1013.51 1013.29 1013.19 1013.06 1012.92 1012.44 1010.79 1006.96 1003.82 1004.33 1003.84 1004.39 1004.52 1004.46 1004.48 1003.93 1003.24 1003.04 1002.41 1002.10 1001.36 1001.67 1001.97 1001.65 1001.46 1001.52 1001.84 1002.46 1004.06 1004.80 1004.63 1004.75 1004.96 1007.07 1009.51 1010.46 1011.24
1016.03 1015.69 1015.39 1014.98 1014.61 1014.26 1013.90 1013.59 1013.30 1013.14 1013.05 1012.98 1012.86 1012.10 1009.30 1004.70 1004.09 1004.19 1003.50 1003.86 1003.86 1003.85 1003.77 1003.15 1002.92 1002.71 1002.66 1002.28 1001.80 1001.89 1002.04 1001.97 1001.41 1001.58 1002.04 1002.61 1004.44 1004.97 1004.80 1004.80 1006.38 1007.40 1009.30 1010.46 1011.68
1015.85 1015.54 1015.24 1014.84 1014.44 1014.07 1013.69 1013.30 1012.99 1012.85 1012.79 1012.73 1012.60 1011.50 1007.44 1003.77 1003.91 1003.49 1003.21 1003.34 1003.49 1003.46 1003.28 1002.98 1002.96 1002.81 1002.86 1002.98 1002.65 1002.24 1002.37 1002.02 1001.81 1001.54 1001.88 1003.05 1005.06 1005.01 1004.74 1004.84 1006.00 1006.13 1008.80 1010.25 1011.15
1015.71 1015.34 1015.00 1014.62 1014.24 1013.87 1013.31 1012.96 1012.50 1012.60 1012.35 1011.91 1011.07 1010.37 1006.45 1003.44 1003.04 1003.14 1002.90 1002.85 1003.16 1003.37 1003.40 1003.32 1003.39 1003.56 1003.41 1003.42 1003.25 1002.61 1002.14 1001.91 1001.88 1002.04 1001.99 1003.19 1004.55 1004.70 1004.87 1005.20 1006.16 1006.83 1008.82 1010.07 1011.24
1015.52 1015.13 1014.78 1014.36 1014.08 1013.86 1013.09 1012.46 1012.58 1011.87 1010.70 1008.64 1007.18 1005.80 1003.43 1002.62 1002.31 1002.88 1002.75 1002.87 1002.90 1003.28 1003.68 1003.65 1004.09 1003.61 1003.17 1002.86 1002.06 1002.04 1002.14 1001.78 1001.81 1002.15 1002.47 1003.14 1004.14 1004.74 1004.94 1005.19 1006.61 1008.01 1009.60 1010.82 1011.74
1015.29 1014.89 1014.49 1014.18 1013.90 1013.79 1013.83 1011.85 1007.90 1007.72 1007.22 1006.27 1005.46 1004.74 1003.13 1002.62 1002.48 1002.56 1002.56 1003.08 1003.03 1003.42 1003.74 1003.93 1003.61 1002.92 1002.56 1002.24 1001.75 1001.67 1001.69 1001.47 1001.86 1002.15 1002.48 1003.11 1004.39 1004.74 1005.16 1005.74 1006.68 1008.14 1009.40 1010.40 1011.42
1014.95 1014.55 1014.21 1013.94 1013.58 1013.39 1011.95 1009.37 1006.94 1006.83 1006.33 1004.09 1003.52 1003.45 1002.32 1001.47 1001.60 1001.79 1002.14 1002.50 1002.79 1003.34 1003.47 1003.49 1002.57 1002.19 1001.93 1001.67 1001.54 1001.27 1001.32 1001.13 1001.82 1001.86 1002.12 1003.62 1005.05 1005.70 1005.95 1005.96 1006.71 1008.10 1009.07 1010.06 1010.78
1014.60 1014.21 1013.95 1013.68 1013.61 1011.19 1009.77 1007.10 1007.32 1007.55 1006.46 1002.78 1001.86 1001.54 1001.60 1001.38 1001.41 1001.05 1001.46 1002.12 1002.36 1002.76 1002.98 1002.79 1001.95 1001.70 1001.12 1000.77 1001.21 1001.04 1000.69 1000.93 1001.68 1002.09 1003.00 1003.43 1006.24 1006.58 1006.66 1006.45 1006.89 1007.60 1008.70 1009.66 1010.22
1014.14 1013.82 1013.66 1013.80 1012.98 1010.72 1006.84 1006.40 1006.20 1006.81 1005.14 1000.01 1000.60 999.80 1000.35 1001.06 1000.53 1000.64 1000.82 1001.57 1002.04 1002.21 1002.54 1002.02 1001.54 1001.09 1000.68 1000.32 1000.24 1000.74 1000.66 1001.02 1001.77 1002.70 1003.54 1004.62 1006.03 1006.72 1007.07 1006.96 1007.07 1007.36 1007.94 1008.81 1009.28
1013.56 1013.33 1013.29 1012.68 1012.53 1008.79 1006.89 1006.41 1005.75 1006.06 1002.62 999.83 999.52 999.79 1000.34 1000.68 1000.74 1000.52 1000.72 1001.29 1001.64 1002.06 1001.90 1001.51 1000.70 1000.42 1000.08 999.74 999.98 1000.45 1000.94 1001.48 1002.22 1003.51 1004.99 1006.29 1007.48 1008.12 1007.89 1007.14 1006.92 1006.59 1006.82 1007.69 1008.29
1012.95 1012.71 1012.84 1011.22 1009.07 1007.32 1006.90 1006.49 1006.12 1004.01 999.74 999.48 999.30 999.47 1000.05 1000.44 1000.59 1000.55 1000.72 1001.30 1001.65 1002.09 1002.22 1001.50 1000.52 999.96 999.62 999.72 999.98 1000.66 1001.68 1002.78 1003.91 1005.04 1006.66 1007.17 1008.88 1010.00 1009.23 1008.27 1007.74 1007.08 1006.36 1007.05 1007.57
1012.14 1011.96 1011.28 1010.35 1008.05 1008.40 1007.45 1006.94 1005.17 1001.54 999.78 998.96 998.90 999.36 999.94 1000.06 1000.30 1000.13 1000.51 1001.21 1001.46 1001.74 1001.80 1001.60 1000.76 999.74 999.26 999.39 1000.10 1000.97 1001.88 1003.15 1004.60 1005.92 1007.30 1007.73 1009.32 1009.06 1008.82 1008.68 1007.70 1006.45 1005.91 1006.56 1007.30
1011.16 1010.73 1009.83 1007.95 1008.32 1009.07 1008.02 1006.46 1003.06 1000.34 998.82 997.99 998.57 998.80 999.50 999.63 999.81 999.92 999.92 1000.43 1000.71 1000.88 1001.43 1001.10 1000.24 999.23 998.88 999.07 999.83 1000.76 1001.74 1001.96 1004.27 1005.75 1007.69 1009.71 1009.65 1008.19 1008.22 1007.73 1007.54 1006.86 1005.72 1006.18 1006.79
1010.59 1008.89 1007.10 1005.66 1007.15 1007.88 1007.32 1005.03 1002.30 1000.18 998.61 997.77 997.12 997.90 998.64 998.99 999.26 999.24 999.30 999.31 999.70 999.88 1000.08 1000.13 1000.53 999.16 998.36 998.60 999.28 1000.22 1001.10 1002.53 1004.57 1006.58 1008.63 1010.56 1010.35 1008.61 1008.10 1007.53 1007.23 1007.61 1006.05 1006.14 1006.37
1009.91 1007.82 1005.40 1005.73 1006.71 1007.04 1005.92 1004.01 1002.03 1000.10 999.30 998.12 997.76 997.81 997.59 998.23 998.49 998.58 998.62 998.27 998.40 998.78 999.27 999.67 1000.30 999.23 998.94 998.62 999.28 1000.04 1000.92 1002.20 1004.06 1005.41 1007.24 1009.70 1010.03 1007.19 1008.48 1007.64 1007.59 1008.36 1006.16 1006.12 1006.28
1009.12 1006.52 1004.81 1005.48 1006.18 1005.57 1004.55 1003.26 1001.56 999.94 998.62 998.03 997.89 997.68 997.30 997.34 997.76 997.91 997.58 997.04 996.88 997.64 998.43 998.80 999.49 999.79 999.00 998.41 998.16 999.06 1000.08 1001.13 1002.86 1004.28 1006.45 1008.38 1008.62 1006.10 1007.20 1008.50 1009.32 1009.06 1009.05 1006.12 1006.04
1009.74 1006.22 1004.44 1004.74 1004.74 1004.23 1003.48 1002.40 1001.12 999.81 998.58 997.64 997.75 997.37 997.44 997.65 997.75 997.26 996.80 996.21 996.06 996.78 997.70 998.48 999.52 1000.10 999.73 998.75 998.33 999.08 999.69 1000.20 1001.08 1001.99 1004.82 1007.38 1007.65 1006.16 1006.60 1008.62 1008.92 1007.64 1008.89 1007.52 1006.22
1009.98 1006.19 1004.77 1004.57 1004.00 1003.74 1003.02 1001.64 1000.36 999.10 998.39 997.80 997.88 997.83 998.43 998.88 997.47 997.49 997.03 996.36 996.00 996.44 997.12 998.05 999.20 1000.16 1000.64 1001.14 1000.32 1000.16 1000.09 1000.15 1000.65 1001.95 1004.08 1004.67 1006.10 1006.58 1006.95 1007.03 1008.34 1008.82 1010.36 1008.72 1007.33
1009.03 1006.22 1005.03 1004.46 1003.95 1003.51 1003.10 1001.95 1000.56 999.14 998.33 998.33 998.66 999.76 999.98 1000.90 999.96 999.43 998.89 997.39 996.53 996.62 997.26 998.28 999.49 999.93 1000.78 1000.84 1000.16 999.82 999.96 1000.15 1000.48 1000.97 1002.26 1003.89 1005.54 1006.87 1007.38 1007.09 1007.13 1006.67 1008.27 1009.18 1008.91
1008.57 1007.34 1005.52 1004.76 1003.00 1002.96 1002.46 1001.82 1000.84 999.77 999.89 999.94 1000.80 1001.54 1002.20 1002.64 1003.17 1002.95 1002.49 1001.02 1000.38 999.10 998.28 998.66 999.71 1000.19 1000.61 1000.53 999.90 999.83 999.85 999.87 999.98 1001.87 1003.32 1004.36 1005.64 1006.40 1006.68 1006.80 1006.44 1005.83 1007.75 1009.02 1009.53
1009.06 1007.86 1006.79 1004.81 1004.32 1004.06 1003.98 1003.10 1001.09 1000.28 1002.18 1002.25 1002.58 1002.16 1003.36 1004.21 1003.58 1003.67 1003.63 1002.74 1002.22 1001.79 1000.98 1000.13 1000.21 1000.96 1001.07 1000.49 1000.76 1001.34 999.94 999.74 999.78 1001.53 1002.41 1003.89 1005.21 1005.08 1006.44 1006.75 1006.53 1006.76 1007.05 1008.11 1009.63
Thickness
5748 5751 5754 5757 5761 5764 5767 5770 5772 5774 5777 5779 5782 5785 5789 5794 5803 5811 5810 5833 5841 5850 5851 5854 5857 5859 5863 5848 5856 5842 5797 5794 5802 5805 5812 5837 5825 5835 5839 5833 5829 5830 5833 5836 5835
5745 5748 5752 5755 5758 5762 5766 5769 5771 5774 5776 5779 5781 5784 5788 5793 5801 5811 5839 5844 5846 5849 5842 5840 5844 5854 5845 5848 5851 5829 5799 5806 5836 5832 5831 5840 5835 5822 5820 5824 5815 5820 5834 5840 5835
5741 5745 5749 5752 5756 5760 5764 5768 5770 5772 5775 5777 5780 5783 5787 5791 5796 5824 5857 5851 5848 5848 5845 5847 5846 5845 5836 5849 5842 5831 5810 5839 5838 5848 5856 5844 5829 5828 5818 5805 5825 5821 5824 5832 5826
5737 5741 5745 5749 5754 5758 5762 5766 5769 5771 5774 5776 5779 5782 5786 5790 5785 5842 5855 5853 5851 5850 5842 5839 5837 5827 5824 5826 5857 5828 5841 5849 5848 5852 5852 5842 5835 5828 5832 5828 5839 5833 5828 5827 5820
5732 5737 5741 5746 5750 5755 5759 5762 5766 5769 5772 5774 5776 5780 5788 5787 5803 5849 5851 5849 5846 5842 5833 5829 5822 5824 5821 5844 5850 5838 5841 5854 5855 5855 5855 5856 5835 5830 5826 5843 5845 5837 5832 5823 5821
5728 5733 5738 5742 5747 5752 5756 5760 5764 5767 5769 5772 5774 5777 5780 5777 5849 5851 5850 5843 5842 5837 5834 5833 5831 5844 5838 5841 5838 5847 5847 5851 5854 5855 5859 5846 5836 5843 5834 5842 5842 5836 5820 5818 5811
5724 5729 5734 5738 5744 5749 5753 5757 5761 5765 5767 5769 5771 5777 5782 5799 5851 5848 5853 5844 5845 5843 5831 5844 5850 5838 5839 5829 5855 5851 5831 5843 5849 5853 5848 5852 5820 5821 5844 5846 5841 5821 5807 5798 5791
5719 5724 5729 5735 5740 5746 5750 5755 5759 5762 5765 5767 5769 5775 5778 5839 5847 5844 5852 5844 5850 5851 5847 5855 5856 5843 5836 5846 5845 5834 5832 5804 5844 5851 5851 5848 5796 5820 5839 5835 5803 5815 5808 5799 5789
5715 5720 5725 5731 5736 5743 5748 5753 5757 5760 5763 5766 5768 5771 5785 5845 5831 5845 5851 5837 5842 5846 5850 5856 5848 5832 5832 5810 5802 5821 5788 5807 5823 5854 5849 5830 5794 5823 5839 5836 5809 5828 5807 5795 5789
5710 5716 5722 5728 5733 5739 5747 5752 5756 5759 5763 5768 5776 5768 5801 5818 5837 5841 5851 5848 5835 5833 5829 5827 5821 5803 5809 5796 5763 5792 5804 5819 5814 5836 5844 5820 5805 5830 5836 5831 5822 5820 5800 5793 5782
5706 5712 5718 5725 5730 5735 5744 5751 5752 5753 5766 5777 5790 5799 5824 5838 5850 5834 5844 5836 5834 5823 5793 5813 5787 5779 5800 5812 5827 5826 5816 5815 5827 5842 5831 5823 5813 5820 5830 5831 5813 5804 5792 5785 5779
5702 5709 5715 5721 5727 5731 5733 5748 5781 5785 5774 5793 5802 5807 5826 5834 5814 5826 5842 5812 5811 5791 5804 5793 5782 5813 5824 5828 5829 5824 5817 5816 5828 5840 5833 5830 5813 5826 5827 5821 5817 5804 5796 5789 5780
5699 5706 5712 5718 5724 5730 5743 5763 5790 5789 5771 5798 5809 5805 5817 5834 5815 5816 5830 5819 5806 5793 5797 5786 5806 5830 5824 5822 5820 5823 5816 5823 5813 5839 5849 5818 5801 5803 5818 5823 5820 5808 5801 5794 5786
5697 5704 5709 5715 5720 5742 5750 5780 5780 5779 5744 5785 5799 5812 5821 5825 5806 5839 5839 5821 5809 5793 5802 5801 5825 5820 5825 5824 5820 5802 5843 5842 5830 5823 5784 5828 5747 5791 5805 5812 5813 5810 5798 5792 5789
5695 5702 5707 5709 5718 5737 5773 5783 5785 5771 5704 5810 5801 5840 5828 5807 5817 5820 5844 5821 5796 5801 5804 5797 5809 5812 5810 5826 5840 5816 5847 5840 5833 5813 5814 5808 5769 5790 5796 5796 5803 5807 5804 5799 5798
5694 5700 5704 5713 5715 5749 5768 5774 5773 5722 5720 5788 5812 5803 5798 5804 5808 5820 5819 5828 5824 5803 5811 5811 5839 5831 5830 5847 5845 5846 5832 5831 5827 5809 5764 5789 5769 5765 5778 5792 5803 5816 5815 5809 5805
5694 5700 5702 5717 5738 5754 5762 5756 5715 5712 5798 5781 5789 5800 5793 5788 5796 5801 5799 5790 5780 5763 5770 5801 5814 5834 5845 5825 5839 5830 5803 5755 5752 5754 5749 5782 5750 5741 5776 5791 5794 5802 5815 5811 5811
5696 5701 5709 5719 5739 5740 5746 5726 5705 5766 5777 5805 5799 5796 5780 5791 5791 5799 5792 5779 5796 5792 5776 5766 5766 5815 5840 5827 5813 5808 5802 5755 5744 5742 5753 5781 5735 5751 5787 5789 5799 5816 5819 5816 5808
5699 5706 5716 5734 5734 5730 5726 5706 5737 5774 5803 5806 5795 5777 5776 5791 5792 5791 5789 5788 5798 5804 5771 5768 5780 5835 5843 5844 5830 5806 5787 5817 5781 5790 5745 5729 5757 5780 5788 5791 5795 5803 5820 5815 5815
5701 5716 5727 5745 5737 5728 5716 5718 5753 5783 5797 5803 5789 5793 5770 5783 5781 5783 5785 5807 5802 5816 5819 5802 5767 5822 5843 5847 5839 5819 5829 5776 5767 5740 5732 5719 5729 5749 5770 5783 5799 5788 5812 5815 5818
5701 5708 5734 5738 5732 5716 5708 5732 5759 5785 5792 5792 5786 5788 5795 5788 5791 5785 5790 5811 5821 5818 5823 5815 5790 5804 5828 5818 5807 5810 5795 5799 5782 5779 5746 5705 5722 5784 5765 5784 5789 5776 5816 5817 5818
5706 5703 5736 5735 5704 5716 5721 5742 5759 5775 5796 5797 5796 5795 5800 5806 5794 5794 5794 5812 5839 5831 5807 5822 5801 5775 5799 5840 5853 5833 5814 5807 5781 5768 5762 5727 5729 5809 5790 5782 5775 5779 5771 5823 5823
5695 5714 5737 5732 5700 5716 5734 5746 5761 5768 5782 5796 5795 5807 5812 5800 5789 5810 5815 5843 5847 5834 5817 5820 5787 5760 5778 5817 5839 5820 5822 5823 5821 5821 5762 5724 5743 5801 5801 5784 5781 5790 5775 5804 5823
5692 5703 5717 5722 5728 5724 5725 5740 5755 5788 5788 5796 5794 5806 5790 5784 5815 5809 5815 5839 5850 5843 5840 5831 5800 5780 5763 5765 5796 5794 5807 5818 5817 5787 5773 5768 5764 5778 5789 5795 5780 5780 5765 5786 5811
5699 5708 5717 5703 5714 5727 5733 5738 5746 5760 5789 5794 5783 5773 5766 5739 5770 5783 5799 5822 5843 5838 5837 5820 5783 5798 5786 5792 5808 5804 5807 5813 5809 5813 5795 5792 5775 5774 5778 5790 5796 5808 5790 5782 5782
5694 5693 5714 5713 5734 5733 5736 5740 5752 5771 5767 5768 5751 5754 5753 5745 5748 5749 5763 5777 5778 5799 5815 5821 5779 5800 5787 5803 5810 5802 5813 5819 5823 5795 5785 5775 5767 5784 5792 5794 5801 5811 5790 5779 5771
5695 5702 5702 5713 5711 5709 5708 5723 5751 5765 5739 5743 5745 5748 5739 5740 5759 5761 5762 5774 5780 5775 5782 5795 5785 5775 5761 5796 5789 5769 5809 5814 5819 5802 5796 5767 5774 5793 5780 5785 5790 5787 5785 5773 5768